Location: Budapest
(47.4979°N, 19.0402°E)
Time: 15:39:06
(UTC+01:00)

Envisat - Pass Details

Date: 10 October 2017
Orbit: 764 x 766 km, 98.2° (Epoch: 18 December)

Event Time Altitude Azimuth Distance (km) Brightness Sun altitude
Exits shadow 22:07:05 12° 263° (W) 2,180 5.7 -39.2°
Maximum altitude 22:07:56 12° 274° (W) 2,153 5.8 -39.3°
Drops below altitude 10° 22:09:58 10° 298° (WNW) 2,311 6.1 -39.6°
Sets 22:13:51 0° 328° (NNW) 3,245 7.1 -40.1°
